WXM80 ListenWXM80 Stop

You find our weather info also at:

UK Metoffice

WeatherCloud

Weather Underground

Northeastern Weather Network

AWEKAS

Citizen Weather Observer Program (CWOP)

HAMweather, WeatherForYou, PWS Weather


Weather Underground History page Text

Daily Summary for December 2, 2017 Units:  Metric    English   Both
« Previous Day
Next Day »
Daily Weekly Monthly Yearly Custom
  High: Low: Average:
Temperature: 8.6 °C 1.8 °C 5.2 °C
Dew Point: 4 °C -0.6 °C 1.5 °C
Humidity: 90 % 68 % 78 %
Wind Speed: 13.5 km/h 0 km/h 1.8 km/h
Wind Gust: 20.4 km/h - -
Wind:- - ENE
Pressure: 1027 hPa 1023.6 hPa -
Precipitation: 0 mm    
Historical Graphs
 
 
Tabular Data for December 2, 2017
Time Temperature Dew Point Pressure Wind Wind Speed Wind Gust Humidity Rainfall Rate (Hourly)
00:04 5.7 °C 0.8 °C 1025.3 hPa North 12.1 km/h 18.5 km/h 71 % 0 mm
00:14 5.6 °C 0.8 °C 1025.6 hPa NNE 9.8 km/h 16.1 km/h 71 % 0 mm
00:19 5.6 °C 0.7 °C 1025.3 hPa NE 8.4 km/h 13 km/h 71 % 0 mm
00:29 5.6 °C 0.7 °C 1025.3 hPa NNE 13.4 km/h 19.3 km/h 71 % 0 mm
00:44 5.5 °C 0.8 °C 1025.6 hPa NNE 13.5 km/h 20.4 km/h 72 % 0 mm
00:50 5.5 °C 0.7 °C 1025.6 hPa North 8.7 km/h 18.5 km/h 71 % 0 mm
00:55 5.4 °C 0.6 °C 1025.3 hPa NE 9 km/h 17.7 km/h 71 % 0 mm
01:00 5.5 °C 0.7 °C 1025.6 hPa North 10.3 km/h 13 km/h 71 % 0 mm
01:05 5.4 °C 0.6 °C 1025.3 hPa NNE 11.9 km/h 18.5 km/h 71 % 0 mm
01:10 5.4 °C 0.8 °C 1025.3 hPa NNE 7.9 km/h 13 km/h 72 % 0 mm
01:15 5.4 °C 0.4 °C 1025.3 hPa NE 7.9 km/h 18.5 km/h 70 % 0 mm
01:26 5.4 °C 0.6 °C 1025.6 hPa NNE 10 km/h 14.5 km/h 71 % 0 mm
01:31 5.4 °C 0.7 °C 1025.3 hPa NNE 9.3 km/h 9.3 km/h 72 % 0 mm
01:52 5.2 °C 0.4 °C 1025.3 hPa NE 6.8 km/h 11.3 km/h 71 % 0 mm
02:02 5.3 °C 0.6 °C 1025.6 hPa NE 4.8 km/h 8 km/h 72 % 0 mm
02:07 5.3 °C 0.8 °C 1026 hPa NNE 7.4 km/h 14.8 km/h 73 % 0 mm
02:12 5.3 °C 0.8 °C 1026 hPa NNE 3.5 km/h 11.1 km/h 73 % 0 mm
02:17 5.2 °C 0.8 °C 1026 hPa NE 10.1 km/h 16.7 km/h 73 % 0 mm
02:27 5.2 °C 0.9 °C 1026 hPa NE 5 km/h 11.3 km/h 74 % 0 mm
02:33 5.2 °C 0.9 °C 1026 hPa NE 9.5 km/h 14.5 km/h 74 % 0 mm
02:38 5.2 °C 0.9 °C 1026 hPa NE 5.3 km/h 9.3 km/h 74 % 0 mm
02:48 5.1 °C 0.8 °C 1026 hPa North 7.7 km/h 13 km/h 74 % 0 mm
02:58 5.1 °C 0.8 °C 1025.6 hPa North 5.6 km/h 7.4 km/h 74 % 0 mm
03:03 5 °C 0.7 °C 1026 hPa North 4.7 km/h 8 km/h 74 % 0 mm
03:08 5 °C 0.7 °C 1026 hPa NNW 1.8 km/h 7.4 km/h 74 % 0 mm
03:13 4.9 °C 0.9 °C 1026 hPa NNW 3.5 km/h 9.3 km/h 75 % 0 mm
03:18 4.9 °C 0.7 °C 1026 hPa North 1.9 km/h 6.4 km/h 74 % 0 mm
03:23 4.8 °C 0.6 °C 1026 hPa North 0.6 km/h 5.6 km/h 74 % 0 mm
03:29 4.8 °C 0.6 °C 1026 hPa NNE 4.8 km/h 8 km/h 74 % 0 mm
03:44 4.7 °C 0.8 °C 1026.3 hPa North 1.4 km/h 3.7 km/h 76 % 0 mm
03:49 4.6 °C 0.7 °C 1026.6 hPa NNW 1 km/h 7.4 km/h 76 % 0 mm
03:55 4.5 °C 0.6 °C 1026.3 hPa NW 0.6 km/h 1.9 km/h 76 % 0 mm
04:00 4.4 °C 0.6 °C 1026.3 hPa NW 1.9 km/h 5.6 km/h 76 % 0 mm
04:05 4.3 °C 0.4 °C 1026.3 hPa NW 3.1 km/h 5.6 km/h 76 % 0 mm
04:10 4.3 °C 0.6 °C 1026 hPa North 4.2 km/h 9.7 km/h 77 % 0 mm
04:15 4.2 °C 0.6 °C 1026.3 hPa North 0.6 km/h 3.7 km/h 77 % 0 mm
04:20 4.2 °C 0.5 °C 1026 hPa North 2.3 km/h 5.6 km/h 77 % 0 mm
04:31 4 °C 0.5 °C 1026.3 hPa North 1.6 km/h 4.8 km/h 78 % 0 mm
04:41 3.9 °C 0.4 °C 1026.3 hPa North 3.2 km/h 6.4 km/h 78 % 0 mm
04:46 3.8 °C 0.3 °C 1026.3 hPa North 3.2 km/h 8 km/h 78 % 0 mm
04:51 3.8 °C 0.5 °C 1026.3 hPa North 1.6 km/h 6.4 km/h 79 % 0 mm
04:56 3.8 °C 0.4 °C 1026 hPa NNE 3.2 km/h 11.3 km/h 79 % 0 mm
05:01 3.7 °C 0.4 °C 1026 hPa NNE 4.5 km/h 6.4 km/h 79 % 0 mm
05:06 3.7 °C 0.6 °C 1026 hPa NNE 1.6 km/h 6.4 km/h 80 % 0 mm
05:11 3.7 °C 0.6 °C 1026 hPa North 3.2 km/h 6.4 km/h 80 % 0 mm
05:16 3.7 °C 0.6 °C 1026 hPa North 3.2 km/h 6.4 km/h 80 % 0 mm
05:26 3.6 °C 0.5 °C 1026 hPa NNE 1.6 km/h 8 km/h 80 % 0 mm
05:41 3.4 °C 0.3 °C 1026.3 hPa Calm   1.6 km/h 80 % 0 mm
05:46 3.3 °C 0.2 °C 1026.3 hPa Calm     80 % 0 mm
05:51 3.2 °C 0.1 °C 1026.3 hPa Calm   1.6 km/h 80 % 0 mm
05:56 3.1 °C 0 °C 1026.3 hPa Calm     80 % 0 mm
06:01 3.1 °C -0.1 °C 1026 hPa Calm     80 % 0 mm
06:11 2.8 °C -0.1 °C 1026.3 hPa Calm     81 % 0 mm
06:16 2.8 °C -0.2 °C 1026.3 hPa Calm     81 % 0 mm
06:21 2.7 °C -0.2 °C 1026.3 hPa Calm     81 % 0 mm
06:26 2.7 °C -0.1 °C 1026.3 hPa Calm     82 % 0 mm
06:36 2.6 °C -0.2 °C 1026.3 hPa East 1.4 km/h 3.7 km/h 82 % 0 mm
06:41 2.5 °C -0.1 °C 1026.3 hPa Calm     83 % 0 mm
06:52 2.3 °C -0.3 °C 1026.6 hPa Calm     83 % 0 mm
07:02 2.2 °C -0.4 °C 1026.6 hPa East 0.6 km/h 1.9 km/h 83 % 0 mm
07:07 2.2 °C -0.4 °C 1026.6 hPa Calm     83 % 0 mm
07:12 2.1 °C -0.5 °C 1026.6 hPa Calm     83 % 0 mm
07:32 1.8 °C -0.6 °C 1027 hPa Calm     84 % 0 mm
07:37 1.8 °C -0.6 °C 1026.6 hPa Calm   1.9 km/h 84 % 0 mm
07:47 1.8 °C -0.3 °C 1026.6 hPa Calm     86 % 0 mm
07:57 1.8 °C -0.3 °C 1027 hPa Calm     86 % 0 mm
08:02 1.8 °C -0.1 °C 1027 hPa Calm     87 % 0 mm
08:08 1.9 °C -0.1 °C 1027 hPa Calm     87 % 0 mm
08:13 2 °C 0.2 °C 1027 hPa Calm     88 % 0 mm
08:18 2.1 °C 0.3 °C 1026.6 hPa Calm     88 % 0 mm
08:23 2.2 °C 0.6 °C 1026.6 hPa Calm     89 % 0 mm
08:28 2.3 °C 0.7 °C 1026.6 hPa Calm     89 % 0 mm
08:33 2.6 °C 0.9 °C 1026.6 hPa Calm     89 % 0 mm
08:38 2.8 °C 1.3 °C 1026.6 hPa Calm     90 % 0 mm
08:43 2.9 °C 1.3 °C 1026.6 hPa Calm     89 % 0 mm
08:48 3.2 °C 1.7 °C 1026.6 hPa East 0.6 km/h 1.9 km/h 90 % 0 mm
08:53 3.4 °C 1.9 °C 1026.6 hPa Calm   1.9 km/h 90 % 0 mm
08:58 3.8 °C 2.2 °C 1026.6 hPa East 0.2 km/h 1.9 km/h 89 % 0 mm
09:03 4.3 °C 2.4 °C 1026.6 hPa East 0.3 km/h 3.2 km/h 88 % 0 mm
09:08 4.7 °C 2.6 °C 1026.6 hPa East 0.2 km/h 1.9 km/h 86 % 0 mm
09:13 5.1 °C 2.7 °C 1026.6 hPa East 0.5 km/h 3.7 km/h 85 % 0 mm
09:18 5.5 °C 3 °C 1026.6 hPa East 1.4 km/h 3.7 km/h 84 % 0 mm
09:23 5.8 °C 3 °C 1027 hPa East 1.1 km/h 5.6 km/h 82 % 0 mm
09:28 6.2 °C 3.2 °C 1027 hPa East 2.1 km/h 3.7 km/h 81 % 0 mm
09:34 6.6 °C 3.3 °C 1026.6 hPa NNE 2.9 km/h 4.8 km/h 80 % 0 mm
09:44 7.1 °C 3.5 °C 1026.6 hPa NE 0.2 km/h 5.6 km/h 78 % 0 mm
09:49 7.2 °C 3.4 °C 1027 hPa NE 1.9 km/h 3.7 km/h 77 % 0 mm
09:54 7.4 °C 3.5 °C 1027 hPa NE 2.7 km/h 5.6 km/h 76 % 0 mm
09:59 7.5 °C 3.2 °C 1027 hPa ENE 2.6 km/h 5.6 km/h 74 % 0 mm
10:04 7.6 °C 3.3 °C 1027 hPa ENE 2.1 km/h 4.8 km/h 74 % 0 mm
10:09 7.7 °C 3.1 °C 1026.6 hPa ENE 3.4 km/h 5.6 km/h 73 % 0 mm
10:15 7.8 °C 3.4 °C 1027 hPa ENE 3.9 km/h 4.8 km/h 74 % 0 mm
10:20 7.9 °C 3.2 °C 1026.6 hPa NNE 1.9 km/h 5.6 km/h 72 % 0 mm
10:21 7.9 °C 3.2 °C 1026.6 hPa NE 1.6 km/h 4.8 km/h 72 % 0 mm
10:26 7.9 °C 3.2 °C 1026.6 hPa NE 1.6 km/h 6.4 km/h 72 % 0 mm
10:31 8 °C 3.4 °C 1026.6 hPa NE 3.2 km/h 8 km/h 73 % 0 mm
10:36 8.1 °C 3.1 °C 1026.6 hPa NE 1.6 km/h 6.4 km/h 71 % 0 mm
10:51 8.1 °C 3.1 °C 1026.3 hPa NE 4.8 km/h 8 km/h 71 % 0 mm
10:56 7.9 °C 2.8 °C 1026.3 hPa Calm   4.8 km/h 70 % 0 mm
11:01 7.9 °C 3.2 °C 1026.3 hPa NE 1.1 km/h 5.6 km/h 72 % 0 mm
11:11 7.9 °C 3.3 °C 1026.3 hPa Calm   3.2 km/h 73 % 0 mm
11:16 7.9 °C 3.6 °C 1026.3 hPa NE 1.6 km/h 6.4 km/h 74 % 0 mm
11:21 7.8 °C 3.5 °C 1026 hPa NE 3.2 km/h 4.8 km/h 74 % 0 mm
11:27 7.8 °C 3.2 °C 1025.6 hPa NNE 5.5 km/h 7.4 km/h 73 % 0 mm
11:41 7.8 °C 3.6 °C 1025.6 hPa NE 3.2 km/h 9.7 km/h 75 % 0 mm
11:46 7.8 °C 3.7 °C 1025.3 hPa NNE 3.2 km/h 9.7 km/h 75 % 0 mm
11:56 7.8 °C 3.5 °C 1025.3 hPa NE 1.6 km/h 6.4 km/h 74 % 0 mm
12:06 7.9 °C 3.6 °C 1024.9 hPa NNE 6.4 km/h 8 km/h 74 % 0 mm
12:10 8 °C 3.8 °C 1025.3 hPa NE 6.9 km/h 9.3 km/h 75 % 0 mm
12:20 8.2 °C 4 °C 1024.9 hPa ENE 1.6 km/h 5.6 km/h 75 % 0 mm
12:25 8.3 °C 3.7 °C 1024.9 hPa ENE 0.8 km/h 1.9 km/h 73 % 0 mm
12:35 8.3 °C 3.7 °C 1024.6 hPa NE 3.1 km/h 5.6 km/h 73 % 0 mm
12:45 8.3 °C 3.5 °C 1024.6 hPa ENE 5 km/h 5.6 km/h 72 % 0 mm
12:50 8.2 °C 3.4 °C 1024.6 hPa ENE 1 km/h 3.7 km/h 72 % 0 mm
12:55 8.2 °C 3.4 °C 1024.6 hPa NNE 3.2 km/h 6.4 km/h 72 % 0 mm
13:00 8.3 °C 3.7 °C 1024.6 hPa ENE 3.2 km/h 6.4 km/h 73 % 0 mm
13:05 8.3 °C 3.6 °C 1024.6 hPa NNE 5.3 km/h 8 km/h 72 % 0 mm
13:10 8.3 °C 3.2 °C 1024.6 hPa ENE 2.1 km/h 5.6 km/h 70 % 0 mm
13:15 8.3 °C 3.6 °C 1024.3 hPa NNE 2.7 km/h 7.4 km/h 72 % 0 mm
13:21 8.4 °C 3.9 °C 1024.3 hPa NNE 3.2 km/h 6.4 km/h 73 % 0 mm
13:31 8.6 °C 3.6 °C 1024.3 hPa NNE 4.8 km/h 7.4 km/h 71 % 0 mm
13:41 8.5 °C 3.3 °C 1024.3 hPa NNE 3.4 km/h 5.6 km/h 70 % 0 mm
13:46 8.4 °C 3.2 °C 1024.3 hPa Calm   3.7 km/h 70 % 0 mm
13:51 8.3 °C 3.2 °C 1024.3 hPa NW 0.2 km/h 3.7 km/h 70 % 0 mm
13:56 8.4 °C 3.2 °C 1024.3 hPa NNE 4.2 km/h 5.6 km/h 70 % 0 mm
14:06 8.3 °C 2.8 °C 1024.3 hPa NE 0.8 km/h 1.9 km/h 68 % 0 mm
14:12 8.3 °C 2.7 °C 1024.3 hPa NNE 0.2 km/h 1.9 km/h 68 % 0 mm
14:17 8.2 °C 2.9 °C 1024.3 hPa NNE 0.2 km/h 1.9 km/h 69 % 0 mm
14:23 8.1 °C 2.9 °C 1024.3 hPa NNE 1 km/h 3.7 km/h 70 % 0 mm
14:28 7.9 °C 2.6 °C 1024.3 hPa NE 1.4 km/h 3.7 km/h 69 % 0 mm
14:38 7.8 °C 2.2 °C 1024.3 hPa NE 0.2 km/h 1.9 km/h 68 % 0 mm
14:43 7.7 °C 2.4 °C 1024.3 hPa NE 1.4 km/h 5.6 km/h 69 % 0 mm
14:48 7.6 °C 2.7 °C 1024.3 hPa Calm   1.9 km/h 71 % 0 mm
15:03 7.5 °C 2.6 °C 1024.3 hPa NNE 0.2 km/h 1.6 km/h 71 % 0 mm
15:08 7.5 °C 2.8 °C 1024.6 hPa NNE 1.3 km/h 3.7 km/h 72 % 0 mm
15:13 7.4 °C 2.7 °C 1024.3 hPa NNE 0.3 km/h 3.7 km/h 72 % 0 mm
15:18 7.4 °C 2.5 °C 1024.3 hPa NNE 0.2 km/h 1.6 km/h 71 % 0 mm
15:23 7.3 °C 2.6 °C 1024.3 hPa NNE 0.2 km/h 1.9 km/h 72 % 0 mm
15:34 7.3 °C 2.6 °C 1024.6 hPa Calm     72 % 0 mm
15:41 7.3 °C 2.6 °C 1024.3 hPa Calm     72 % 0 mm
15:46 7.2 °C 2.5 °C 1024.6 hPa Calm     72 % 0 mm
15:51 7.2 °C 2.4 °C 1024.6 hPa Calm     72 % 0 mm
15:56 7.1 °C 2.6 °C 1024.3 hPa Calm     73 % 0 mm
16:01 7 °C 2.5 °C 1024.6 hPa Calm     73 % 0 mm
16:06 6.9 °C 2.2 °C 1024.3 hPa Calm     72 % 0 mm
16:10 6.9 °C 2.4 °C 1024.6 hPa Calm     73 % 0 mm
16:20 6.7 °C 2.2 °C 1024.3 hPa Calm     73 % 0 mm
16:25 6.6 °C 2.1 °C 1024.3 hPa Calm     73 % 0 mm
16:35 6.5 °C 2.2 °C 1024.6 hPa Calm     74 % 0 mm
16:40 6.4 °C 2.2 °C 1024.6 hPa Calm     74 % 0 mm
16:45 6.3 °C 2.2 °C 1024.3 hPa Calm     75 % 0 mm
16:50 6.2 °C 2.1 °C 1024.6 hPa Calm     75 % 0 mm
16:55 6.2 °C 2.1 °C 1024.6 hPa Calm     75 % 0 mm
17:00 6.1 °C 2 °C 1024.6 hPa Calm     75 % 0 mm
17:05 6 °C 2.1 °C 1024.6 hPa Calm     76 % 0 mm
17:10 5.9 °C 2 °C 1024.6 hPa Calm     76 % 0 mm
17:15 5.8 °C 1.9 °C 1024.6 hPa Calm     76 % 0 mm
17:20 5.7 °C 1.8 °C 1024.6 hPa Calm     76 % 0 mm
17:25 5.7 °C 1.8 °C 1024.6 hPa Calm     76 % 0 mm
17:30 5.6 °C 1.7 °C 1024.6 hPa Calm     76 % 0 mm
17:35 5.6 °C 1.8 °C 1024.6 hPa Calm     77 % 0 mm
17:41 5.5 °C 1.8 °C 1024.6 hPa Calm     77 % 0 mm
17:51 5.4 °C 1.8 °C 1024.6 hPa Calm     78 % 0 mm
17:56 5.3 °C 1.8 °C 1024.6 hPa Calm     78 % 0 mm
18:06 5.2 °C 1.8 °C 1024.6 hPa Calm     79 % 0 mm
18:16 5.1 °C 1.6 °C 1024.6 hPa Calm     78 % 0 mm
18:31 4.9 °C 1.6 °C 1024.6 hPa Calm     79 % 0 mm
18:36 4.9 °C 1.6 °C 1024.6 hPa Calm     79 % 0 mm
18:41 4.8 °C 1.7 °C 1024.6 hPa Calm     80 % 0 mm
18:46 4.8 °C 1.5 °C 1024.6 hPa Calm     79 % 0 mm
18:56 4.7 °C 1.4 °C 1024.6 hPa Calm     79 % 0 mm
19:07 4.7 °C 1.5 °C 1024.3 hPa Calm   1.9 km/h 80 % 0 mm
19:12 4.7 °C 1.5 °C 1024.3 hPa Calm   1.9 km/h 80 % 0 mm
19:17 4.7 °C 1.5 °C 1024.3 hPa Calm     80 % 0 mm
19:22 4.6 °C 1.4 °C 1024.3 hPa Calm     80 % 0 mm
19:27 4.6 °C 1.4 °C 1023.9 hPa Calm     80 % 0 mm
19:32 4.6 °C 1.4 °C 1023.9 hPa Calm     80 % 0 mm
19:37 4.6 °C 1.4 °C 1023.9 hPa Calm     80 % 0 mm
19:53 4.5 °C 1.3 °C 1023.9 hPa ESE 1.6 km/h 3.7 km/h 80 % 0 mm
20:03 4.4 °C 1.2 °C 1024.3 hPa ESE 1 km/h 3.7 km/h 80 % 0 mm
20:08 4.3 °C 1.2 °C 1023.9 hPa ESE 1.1 km/h 3.7 km/h 80 % 0 mm
20:13 4.3 °C 1.1 °C 1023.9 hPa ESE 1.4 km/h 3.7 km/h 80 % 0 mm
20:18 4.2 °C 1.1 °C 1023.9 hPa Calm   1.9 km/h 80 % 0 mm
20:28 4.1 °C 0.9 °C 1023.6 hPa Calm   3.7 km/h 80 % 0 mm
20:33 4 °C 0.8 °C 1023.6 hPa South 1.9 km/h 5.6 km/h 80 % 0 mm
20:38 3.9 °C 0.8 °C 1023.9 hPa Calm   3.7 km/h 80 % 0 mm
20:43 3.9 °C 0.8 °C 1023.9 hPa Calm   1.9 km/h 80 % 0 mm
20:48 3.8 °C 0.7 °C 1023.9 hPa South 0.6 km/h 1.6 km/h 80 % 0 mm
20:54 3.8 °C 0.7 °C 1023.9 hPa Calm   1.9 km/h 80 % 0 mm
20:59 3.7 °C 0.6 °C 1023.9 hPa South 0.2 km/h 1.9 km/h 80 % 0 mm
21:04 3.7 °C 0.7 °C 1023.9 hPa Calm     81 % 0 mm
21:09 3.6 °C 0.6 °C 1023.9 hPa Calm     81 % 0 mm
21:14 3.5 °C 0.6 °C 1023.9 hPa Calm     81 % 0 mm
21:19 3.4 °C 0.5 °C 1023.9 hPa South 1 km/h 3.7 km/h 81 % 0 mm
21:30 3.3 °C 0.4 °C 1023.9 hPa Calm     81 % 0 mm
21:35 3.3 °C 0.5 °C 1023.9 hPa Calm     82 % 0 mm
21:40 3.2 °C 0.4 °C 1023.9 hPa Calm     82 % 0 mm
21:50 3.1 °C 0.3 °C 1024.3 hPa Calm   1.6 km/h 82 % 0 mm
21:55 3.1 °C 0.3 °C 1024.6 hPa Calm     82 % 0 mm
22:01 3 °C 0.2 °C 1024.6 hPa Calm     82 % 0 mm
22:11 2.8 °C 0.2 °C 1024.3 hPa Calm     83 % 0 mm
22:16 2.8 °C 0.2 °C 1024.3 hPa Calm     83 % 0 mm
22:21 2.7 °C 0.1 °C 1024.6 hPa Calm     83 % 0 mm
22:26 2.7 °C 0.1 °C 1024.3 hPa Calm     83 % 0 mm
22:31 2.6 °C 0 °C 1024.3 hPa Calm     83 % 0 mm
22:36 2.6 °C 0.2 °C 1024.6 hPa Calm     84 % 0 mm
22:46 2.5 °C 0.1 °C 1024.6 hPa Calm   1.9 km/h 84 % 0 mm
22:51 2.4 °C 0 °C 1024.6 hPa Calm   1.9 km/h 84 % 0 mm
23:01 2.4 °C 0.1 °C 1024.3 hPa Calm     85 % 0 mm
23:07 2.4 °C 0.1 °C 1024.6 hPa Calm     85 % 0 mm
23:11 2.4 °C 0.3 °C 1024.6 hPa Calm     86 % 0 mm
23:17 2.4 °C 0.3 °C 1024.6 hPa Calm     86 % 0 mm
23:22 2.4 °C 0.3 °C 1024.3 hPa Calm     86 % 0 mm
23:28 2.4 °C 0.3 °C 1024.3 hPa Calm     86 % 0 mm
23:33 2.4 °C 0.3 °C 1024.6 hPa Calm     86 % 0 mm
23:38 2.5 °C 0.4 °C 1024.3 hPa Calm     86 % 0 mm
23:43 2.5 °C 0.4 °C 1024.3 hPa Calm     86 % 0 mm
23:58 2.7 °C 0.7 °C 1024.6 hPa Calm     87 % 0 mm
Crab Meadow Weather
Compliments of Weather Underground - 2.5 mb

Script developed by  Jim McMurry - jmcmurry@mwt.net Adapted for the template by  Wim van der Kuil - Leuven-Template.eu

Rain: The total amount of precipitation the earth receives each year as snow, hail, and rain is equivalent to 10 million gallons of water for every person in the United States.